Year,Month,Day,Hour,Minute,Value (Times are PST for temperature in C)
2010,10,01,08,37,12.20
2010,10,01,08,38,12.20
2010,10,01,08,39,12.30
2010,10,01,08,40,12.30
2010,10,01,08,41,12.30
2010,10,01,08,42,12.30
2010,10,01,08,43,12.30
2010,10,01,08,44,12.30
2010,10,01,08,45,12.30
2010,10,01,08,46,12.30
2010,10,01,08,47,12.40
2010,10,01,08,48,12.40
2010,10,01,08,49,12.40
2010,10,01,08,50,12.40
2010,10,01,08,51,12.40
2010,10,01,08,52,12.40
2010,10,01,08,53,12.50
2010,10,01,08,54,12.50
2010,10,01,08,55,12.50
2010,10,01,08,56,12.50
2010,10,01,08,57,12.50
2010,10,01,08,58,12.60
2010,10,01,08,59,12.60
2010,10,01,09,00,12.60
2010,10,01,09,01,12.70
2010,10,01,09,02,12.70
2010,10,01,09,03,12.70
2010,10,01,09,04,12.70
2010,10,01,09,05,12.70
2010,10,01,09,06,12.80
2010,10,01,09,07,12.80
2010,10,01,09,08,12.90
2010,10,01,09,09,12.90
2010,10,01,09,10,13.00
2010,10,01,09,11,13.00
2010,10,01,09,12,13.10
2010,10,01,09,13,13.20
2010,10,01,09,14,13.20
2010,10,01,09,15,13.30
2010,10,01,09,16,13.30
2010,10,01,09,17,13.30
2010,10,01,09,18,13.30
2010,10,01,09,19,13.30
2010,10,01,09,20,13.40
2010,10,01,09,21,13.40
2010,10,01,09,22,13.40
2010,10,01,09,23,13.50
2010,10,01,09,24,13.60
2010,10,01,09,25,13.60
2010,10,01,09,26,13.70
2010,10,01,09,27,13.70
2010,10,01,09,28,13.70
2010,10,01,09,29,13.80
2010,10,01,09,30,13.80
2010,10,01,09,31,13.80
2010,10,01,09,32,13.90
2010,10,01,09,33,13.90
2010,10,01,09,34,13.90
2010,10,01,09,35,13.90
2010,10,01,09,36,14.00
2010,10,01,09,37,14.10
2010,10,01,09,38,14.10
2010,10,01,09,39,14.20
2010,10,01,09,40,14.30
2010,10,01,09,41,14.40
2010,10,01,09,42,14.60
2010,10,01,09,43,14.70
2010,10,01,09,44,14.80
2010,10,01,09,45,14.90
2010,10,01,09,46,15.00
2010,10,01,09,47,15.00
2010,10,01,09,48,15.00
2010,10,01,09,49,15.00
2010,10,01,09,50,15.00
2010,10,01,09,51,15.10
2010,10,01,09,52,15.20
2010,10,01,09,53,15.20
2010,10,01,09,54,15.30
2010,10,01,09,55,15.30
2010,10,01,09,56,15.40
2010,10,01,09,57,15.50
2010,10,01,09,58,15.60
2010,10,01,09,59,15.70
2010,10,01,10,00,15.80
2010,10,01,10,01,15.80
2010,10,01,10,02,15.90
2010,10,01,10,03,16.00
2010,10,01,10,04,16.00
2010,10,01,10,05,16.10
2010,10,01,10,06,16.10
2010,10,01,10,07,16.20
2010,10,01,10,08,16.20
2010,10,01,10,09,16.20
2010,10,01,10,10,16.30
2010,10,01,10,11,16.30
2010,10,01,10,12,16.30
2010,10,01,10,13,16.30
2010,10,01,10,14,16.30
2010,10,01,10,15,16.30
2010,10,01,10,16,16.30
2010,10,01,10,17,16.30
2010,10,01,10,18,16.30
2010,10,01,10,19,16.40
2010,10,01,10,20,16.40
2010,10,01,10,21,16.40
2010,10,01,10,22,16.40
2010,10,01,10,23,16.40
2010,10,01,10,24,16.50
2010,10,01,10,25,16.50
2010,10,01,10,26,16.50
2010,10,01,10,27,16.50
2010,10,01,10,28,16.60
2010,10,01,10,29,16.60
2010,10,01,10,30,16.60
2010,10,01,10,31,16.60
2010,10,01,10,32,16.70
2010,10,01,10,33,16.70
2010,10,01,10,34,16.70
2010,10,01,10,35,16.70
2010,10,01,10,36,16.80
2010,10,01,10,37,16.80
2010,10,01,10,38,16.80
2010,10,01,10,39,16.90
2010,10,01,10,40,16.90
2010,10,01,10,41,16.90
2010,10,01,10,42,17.00
2010,10,01,10,43,17.00
2010,10,01,10,44,17.10
2010,10,01,10,45,17.10
2010,10,01,10,46,17.20
2010,10,01,10,47,17.20
2010,10,01,10,48,17.30
2010,10,01,10,49,17.30
2010,10,01,10,50,17.30
2010,10,01,10,51,17.40
2010,10,01,10,52,17.40
2010,10,01,10,53,17.40
2010,10,01,10,54,17.50
2010,10,01,10,55,17.50
2010,10,01,10,56,17.50
2010,10,01,10,57,17.50
2010,10,01,10,58,17.50
2010,10,01,10,59,17.50
2010,10,01,11,00,17.50
2010,10,01,11,01,17.50
2010,10,01,11,02,17.50
2010,10,01,11,03,17.50
2010,10,01,11,04,17.50
2010,10,01,11,05,17.50
2010,10,01,11,06,17.50
2010,10,01,11,07,17.50
2010,10,01,11,08,17.50
2010,10,01,11,09,17.50
2010,10,01,11,10,17.50
2010,10,01,11,11,17.60
2010,10,01,11,12,17.60
2010,10,01,11,13,17.60
2010,10,01,11,14,17.70
2010,10,01,11,15,17.70
2010,10,01,11,16,17.70
2010,10,01,11,17,17.70
2010,10,01,11,18,17.70
2010,10,01,11,19,17.70
2010,10,01,11,20,17.70
2010,10,01,11,21,17.70
2010,10,01,11,22,17.80
2010,10,01,11,23,17.80
2010,10,01,11,24,17.80
2010,10,01,11,25,17.80
2010,10,01,11,26,17.90
2010,10,01,11,27,17.90
2010,10,01,11,28,18.00
2010,10,01,11,29,18.00
2010,10,01,11,30,18.10
2010,10,01,11,31,18.10
2010,10,01,11,32,18.10
2010,10,01,11,33,18.10
2010,10,01,11,34,18.10
2010,10,01,11,35,18.10
2010,10,01,11,36,18.20
2010,10,01,11,37,18.20
2010,10,01,11,38,18.30
2010,10,01,11,39,18.30
2010,10,01,11,40,18.40
2010,10,01,11,41,18.40
2010,10,01,11,42,18.50
2010,10,01,11,43,18.60
2010,10,01,11,44,18.60
2010,10,01,11,45,18.60
2010,10,01,11,46,18.60
2010,10,01,11,47,18.60
2010,10,01,11,48,18.60
2010,10,01,11,49,18.60
2010,10,01,11,50,18.60
2010,10,01,11,51,18.60
2010,10,01,11,52,18.60
2010,10,01,11,53,18.60
2010,10,01,11,54,18.60
2010,10,01,11,55,18.60
2010,10,01,11,56,18.60
2010,10,01,11,57,18.60
2010,10,01,11,58,18.60
2010,10,01,11,59,18.60
2010,10,01,12,00,18.60
2010,10,01,12,01,18.60
2010,10,01,12,02,18.60
2010,10,01,12,03,18.60
2010,10,01,12,04,18.60
2010,10,01,12,05,18.60
2010,10,01,12,06,18.60
2010,10,01,12,07,18.70
2010,10,01,12,08,18.70
2010,10,01,12,09,18.80
2010,10,01,12,10,18.80
2010,10,01,12,11,18.90
2010,10,01,12,12,19.00
2010,10,01,12,13,19.10
2010,10,01,12,14,19.10
2010,10,01,12,15,19.20
2010,10,01,12,16,19.40
2010,10,01,12,17,19.50
2010,10,01,12,18,19.50
2010,10,01,12,19,19.60
2010,10,01,12,20,19.60
2010,10,01,12,21,19.70
2010,10,01,12,22,19.70
2010,10,01,12,23,19.70
2010,10,01,12,24,19.70
2010,10,01,12,25,19.70
2010,10,01,12,26,19.70
2010,10,01,12,27,19.70
2010,10,01,12,28,19.70
2010,10,01,12,29,19.80
2010,10,01,12,30,19.80
2010,10,01,12,31,19.80
2010,10,01,12,32,19.80
2010,10,01,12,33,19.80
2010,10,01,12,34,19.80
2010,10,01,12,35,19.80
2010,10,01,12,36,19.80
2010,10,01,12,37,19.70
2010,10,01,12,38,19.60
2010,10,01,12,39,19.50
2010,10,01,12,40,19.40
2010,10,01,12,41,19.30
2010,10,01,12,42,19.20
2010,10,01,12,43,19.20
2010,10,01,12,44,19.20
2010,10,01,12,45,19.20
2010,10,01,12,46,19.20
2010,10,01,12,47,19.20
2010,10,01,12,48,19.20
2010,10,01,12,49,19.20
2010,10,01,12,50,19.20
2010,10,01,12,51,19.20
2010,10,01,12,52,19.20
